Wind_Speed
28 29 26 25 23 21 19 17 18 20 22 23 24 24 26 28 28 27 28 30 32 33 34 34 34 36 39 42 44 46 47 47 48 52 55 58 61 64 65 64 65 68 69
31 33 31 30 29 28 26 22 22 23 25 27 29 30 31 32 33 32 33 35 37 37 38 39 38 40 43 45 47 49 50 52 54 56 58 59 61 64 65 65 66 66 63
31 33 32 32 33 32 31 30 29 28 29 31 32 34 35 37 38 40 41 42 43 42 42 44 46 48 49 50 52 53 53 55 57 59 59 61 62 65 67 67 63 55 49
34 35 34 32 32 33 34 35 34 32 32 33 35 38 39 40 42 44 45 48 48 48 49 50 52 54 54 54 55 55 56 57 59 61 61 62 63 63 61 56 52 48 45
39 38 34 32 34 36 37 37 37 35 34 36 38 40 42 46 47 47 48 51 52 53 52 51 51 52 53 54 56 57 57 59 61 62 62 61 56 52 49 47 46 46 45
41 38 37 37 37 38 39 40 39 37 37 37 39 42 44 47 49 50 50 49 49 49 48 48 48 49 51 53 56 57 57 59 62 63 61 55 50 48 47 46 45 44 44
36 36 37 37 38 40 42 43 42 39 36 38 41 44 45 48 49 48 45 43 42 42 44 48 50 52 53 55 57 57 58 60 62 60 56 53 50 49 48 47 47 48 49
27 29 32 35 38 40 41 41 40 37 36 39 43 44 44 45 43 41 40 40 42 44 47 50 52 53 54 55 56 57 59 60 58 55 53 52 51 51 52 53 54 55 56
23 25 28 31 33 35 36 37 37 37 39 42 45 47 46 42 40 39 41 43 44 47 49 51 53 53 53 55 56 58 59 58 55 54 54 53 53 54 56 59 60 62 62
20 22 24 27 30 31 32 34 36 39 42 44 46 44 41 40 42 45 45 44 45 48 52 53 53 53 54 56 57 58 56 56 55 55 55 56 56 57 59 61 63 64 65
25 26 26 28 30 31 32 33 36 40 42 43 44 43 42 44 50 48 45 45 47 50 51 51 53 54 56 57 56 55 55 56 55 56 56 57 58 59 60 62 63 62 62
26 27 28 29 30 33 34 35 37 39 40 41 43 45 48 51 52 48 46 46 48 49 49 51 54 56 56 56 55 54 55 55 55 55 56 58 59 60 60 60 59 58 56
30 30 31 33 34 35 36 37 39 42 45 48 50 51 51 52 51 47 46 47 46 47 49 51 52 53 53 53 53 53 53 54 55 56 57 58 58 56 54 52 51 49 47
34 36 37 37 38 38 39 41 44 46 50 51 51 51 50 49 48 46 46 45 45 47 48 48 49 50 50 51 51 52 53 54 55 56 56 55 52 47 44 43 41 38 35
37 38 39 40 43 44 46 47 48 50 51 50 50 49 48 47 46 45 44 44 45 45 45 47 48 49 50 51 51 52 53 55 55 53 51 47 44 43 41 38 34 29 25
39 41 43 47 49 50 50 49 49 49 48 47 48 48 47 46 45 44 43 43 44 45 46 48 50 51 51 51 51 52 54 54 51 47 45 43 43 42 39 33 27 22 18
46 48 49 50 51 50 49 47 47 45 46 47 48 48 47 44 43 42 42 43 45 46 47 50 51 52 50 50 52 53 51 48 44 41 40 40 38 35 30 26 22 19 17
51 51 49 48 47 45 44 44 43 45 49 49 49 47 43 41 41 41 42 44 46 48 50 51 50 50 49 50 51 49 46 42 37 35 35 34 31 26 21 19 18 16 15
48 46 45 44 42 41 41 42 45 48 50 47 42 39 39 40 40 41 43 45 48 50 50 49 48 48 48 48 46 43 39 33 32 32 32 29 26 21 16 14 13 11 10
44 43 41 39 38 38 42 46 49 49 45 37 34 36 38 40 40 42 44 47 49 48 47 46 46 46 45 43 40 36 31 29 29 29 28 27 22 16 12 8 6 5 5
40 38 35 33 34 39 46 48 46 40 35 33 34 36 37 39 41 43 45 47 47 46 46 46 46 43 40 37 34 30 27 27 26 25 25 23 17 11 7 2 3 7 7
33 31 29 30 35 41 42 39 34 32 31 32 34 35 36 39 41 43 44 44 45 46 47 46 43 38 34 32 29 26 25 23 22 22 21 16 10 6 4 8 10 10 11
26 25 27 32 36 35 33 30 28 28 30 30 32 34 37 39 41 42 43 44 45 46 45 41 35 32 30 27 24 21 20 20 20 20 16 10 8 9 11 12 12 12 12
23 26 30 32 31 29 26 25 25 25 26 29 32 35 38 39 40 42 43 44 43 41 36 31 29 29 26 22 17 16 17 18 18 17 11 10 11 13 13 13 12 11 11
24 26 27 27 25 22 20 19 20 23 27 31 34 36 37 39 40 42 42 40 36 31 27 26 27 25 20 15 12 13 14 15 14 11 10 13 14 13 12 11 11 11 10
20 21 20 17 15 15 15 17 21 25 29 31 34 36 38 40 40 39 36 32 27 23 23 24 23 20 14 10 9 11 11 11 10 9 12 15 15 15 14 14 14 13 11
Wind_Direction
252 258 259 259 260 261 267 278 289 296 300 303 307 304 299 299 303 305 303 301 297 292 288 287 288 291 294 297 300 301 300 297 294 291 288 286 283 281 279 279 280 279 278
257 258 261 260 259 259 262 271 281 292 298 302 305 306 301 297 298 299 300 298 296 293 288 284 283 286 291 295 297 298 298 297 295 293 291 288 286 284 283 281 279 279 278
257 257 263 263 260 264 272 279 282 288 294 297 301 303 301 298 299 300 298 298 294 289 287 286 285 286 290 294 296 296 296 295 295 295 294 290 287 285 284 283 280 277 274
263 263 268 263 260 265 271 277 282 284 289 295 299 301 299 296 296 299 298 298 297 290 287 288 289 288 288 292 295 296 296 296 295 294 293 291 288 286 286 284 279 275 273
270 269 265 261 262 265 269 275 279 282 288 293 297 296 296 296 296 297 298 299 298 294 292 291 291 289 288 290 293 295 295 295 295 294 293 291 290 288 286 284 279 276 274
270 265 261 264 267 269 271 275 278 282 288 290 292 294 297 300 301 299 298 299 300 299 296 293 292 292 292 292 293 295 294 294 294 294 293 291 289 288 286 283 280 276 274
268 263 262 265 268 271 274 277 280 282 283 285 289 295 298 300 301 301 301 301 302 301 298 295 294 293 293 294 295 295 294 294 294 293 291 291 290 289 286 283 280 278 277
269 267 267 269 270 272 274 276 278 278 281 285 289 294 298 300 300 302 304 305 305 302 299 297 295 294 294 294 294 294 294 293 292 291 291 290 290 288 287 285 283 281 280
273 276 275 274 275 275 274 275 277 282 285 288 291 293 294 298 303 306 308 308 306 303 299 298 297 296 296 296 295 294 293 292 292 291 290 289 288 288 287 287 286 284 283
274 280 281 281 281 280 279 278 282 286 288 290 292 294 296 301 308 311 310 306 303 300 299 300 299 298 297 296 295 294 294 295 294 293 291 290 290 290 289 288 287 286 286
280 286 287 286 284 283 282 284 290 292 291 292 294 295 300 306 312 312 307 303 301 299 299 299 298 297 296 295 295 295 295 295 294 294 293 293 293 294 293 291 290 288 287
284 289 292 292 290 286 285 288 291 294 294 299 301 303 307 309 309 307 302 299 298 298 298 298 296 295 294 294 295 296 296 297 297 298 299 299 298 296 294 292 289 287 284
284 286 288 290 291 291 293 295 296 297 298 304 307 308 307 307 305 301 298 297 297 298 297 295 295 294 294 295 297 298 300 302 304 304 303 301 299 297 295 294 292 288 284
284 286 288 288 290 293 296 299 299 300 302 305 306 306 306 304 300 298 297 297 298 298 297 296 297 297 297 299 302 304 306 308 308 307 304 301 298 296 297 298 296 292 287
284 288 289 288 289 293 296 298 300 302 304 303 303 303 303 300 298 297 296 298 298 299 301 302 302 302 304 306 309 310 310 310 309 307 304 301 297 296 297 297 294 292 288
287 291 292 290 290 292 295 299 301 302 300 298 299 300 299 298 297 297 298 300 302 304 306 306 307 309 310 312 313 313 313 312 310 307 305 302 299 297 294 290 287 287 283
288 291 292 290 290 294 298 299 301 298 290 288 292 295 295 295 297 299 301 304 306 308 310 312 312 313 314 314 314 314 313 311 310 309 308 307 305 299 292 284 280 279 277
287 289 289 290 292 295 296 297 296 288 280 280 287 291 294 297 300 302 305 308 311 313 314 314 313 314 315 315 315 314 313 311 311 312 313 314 312 306 295 282 277 279 279
285 286 288 288 289 289 288 286 284 280 275 279 287 294 298 299 302 306 309 312 313 314 313 313 314 315 315 315 314 313 312 313 315 318 319 319 318 313 301 288 280 276 273
281 283 284 284 284 281 276 275 276 277 280 287 295 299 299 302 306 309 311 313 313 313 313 314 316 316 315 314 313 314 315 317 319 320 320 319 319 316 308 298 282 248 213
278 279 279 277 276 273 272 272 274 282 292 299 300 299 301 305 309 311 312 312 312 313 314 316 317 316 315 314 315 316 318 320 319 320 321 321 322 320 317 329 133 141 146
274 275 274 271 269 269 274 280 286 293 297 298 298 301 305 309 311 312 312 312 314 315 317 317 317 316 315 316 317 319 323 325 325 326 329 335 345 7 76 107 117 124 130
273 271 268 268 270 277 284 289 293 296 297 298 302 307 310 311 312 312 313 315 316 317 317 318 317 318 318 318 319 323 330 333 335 339 347 8 43 77 96 104 112 120 127
262 261 264 270 275 279 283 288 293 296 300 305 309 311 312 312 313 315 316 317 318 318 319 320 322 323 322 320 323 330 336 339 341 347 13 56 78 89 96 102 108 115 124
259 266 272 276 278 282 288 294 300 306 310 313 313 313 313 315 317 318 319 320 321 323 324 325 327 327 326 324 328 334 336 340 349 14 68 85 90 95 100 104 107 112 119
266 270 274 279 286 293 300 307 314 317 317 317 316 316 317 318 319 321 322 325 327 329 330 329 330 332 331 329 333 336 339 348 9 58 97 101 101 100 102 105 107 107 106
Height
5857 5856 5857 5857 5856 5854 5853 5852 5851 5850 5849 5848 5846 5844 5842 5840 5837 5834 5831 5829 5825 5822 5818 5815 5812 5808 5805 5801 5797 5792 5787 5783 5778 5772 5766 5760 5754 5749 5744 5739 5734 5729 5724
5852 5851 5851 5852 5851 5849 5847 5846 5846 5845 5844 5842 5840 5838 5835 5833 5831 5828 5825 5822 5819 5815 5811 5807 5803 5799 5795 5791 5786 5781 5775 5770 5764 5758 5752 5745 5739 5731 5726 5722 5717 5711 5707
5846 5845 5845 5846 5845 5844 5842 5840 5839 5838 5836 5834 5831 5828 5826 5824 5821 5819 5816 5813 5810 5806 5802 5798 5794 5789 5784 5780 5774 5768 5762 5755 5748 5741 5736 5729 5722 5715 5709 5703 5699 5696 5693
5838 5838 5838 5839 5839 5837 5835 5833 5831 5829 5827 5825 5822 5819 5817 5814 5811 5808 5805 5801 5798 5794 5791 5787 5782 5777 5771 5766 5760 5753 5746 5740 5732 5724 5718 5711 5704 5698 5694 5688 5684 5683 5682
5831 5831 5831 5831 5831 5829 5827 5825 5823 5821 5819 5816 5813 5810 5807 5804 5800 5796 5793 5788 5785 5781 5777 5773 5767 5762 5756 5751 5745 5738 5731 5724 5718 5709 5702 5694 5687 5681 5678 5675 5673 5671 5669
5823 5824 5824 5823 5822 5820 5818 5816 5814 5811 5809 5806 5804 5801 5798 5794 5789 5785 5782 5777 5772 5769 5764 5759 5754 5748 5742 5736 5730 5723 5716 5710 5702 5694 5687 5680 5674 5669 5665 5661 5659 5657 5657
5815 5816 5816 5815 5813 5810 5808 5805 5803 5801 5799 5797 5795 5792 5788 5784 5780 5775 5770 5765 5760 5755 5751 5746 5741 5734 5728 5721 5715 5708 5702 5695 5688 5680 5673 5667 5662 5657 5653 5649 5646 5643 5642
5806 5806 5806 5805 5803 5801 5798 5796 5794 5791 5790 5789 5786 5782 5778 5774 5769 5764 5758 5753 5748 5742 5738 5733 5727 5720 5714 5707 5701 5693 5687 5679 5672 5666 5660 5655 5649 5644 5640 5636 5632 5628 5626
5798 5798 5796 5795 5793 5791 5789 5787 5785 5783 5781 5779 5776 5772 5768 5763 5758 5752 5747 5741 5736 5730 5724 5719 5713 5706 5700 5693 5686 5679 5672 5664 5658 5652 5646 5640 5634 5630 5626 5621 5615 5610 5606
5790 5789 5788 5786 5784 5782 5781 5779 5777 5775 5772 5769 5764 5760 5756 5752 5746 5741 5735 5729 5723 5717 5711 5706 5699 5693 5686 5679 5672 5664 5657 5651 5645 5639 5632 5626 5620 5615 5610 5604 5597 5590 5585
5783 5782 5780 5778 5776 5775 5773 5771 5769 5765 5761 5757 5753 5749 5745 5739 5734 5728 5722 5717 5711 5705 5699 5693 5686 5679 5672 5665 5657 5650 5643 5637 5631 5625 5618 5611 5604 5598 5592 5585 5577 5571 5565
5776 5775 5773 5771 5769 5767 5765 5762 5759 5755 5751 5746 5741 5737 5732 5727 5721 5715 5710 5704 5698 5693 5686 5680 5673 5666 5659 5652 5644 5637 5630 5623 5616 5608 5600 5593 5586 5580 5573 5566 5559 5552 5547
5769 5767 5765 5764 5762 5759 5756 5753 5749 5746 5740 5735 5730 5725 5720 5715 5709 5703 5697 5691 5685 5680 5674 5667 5660 5654 5647 5639 5631 5623 5616 5608 5599 5591 5583 5576 5569 5563 5556 5548 5541 5535 5531
5760 5759 5757 5755 5752 5749 5746 5742 5738 5734 5729 5723 5719 5714 5708 5703 5697 5691 5686 5680 5674 5668 5662 5654 5647 5640 5633 5625 5617 5608 5600 5592 5584 5575 5567 5560 5553 5547 5541 5535 5528 5523 5520
5752 5750 5748 5745 5742 5738 5735 5731 5726 5722 5717 5712 5707 5702 5696 5691 5685 5680 5674 5668 5662 5656 5649 5642 5635 5628 5619 5611 5601 5593 5585 5577 5569 5561 5553 5546 5540 5534 5529 5523 5518 5514 5511
5742 5740 5737 5734 5730 5727 5723 5719 5714 5709 5704 5700 5695 5690 5685 5680 5674 5669 5663 5657 5651 5644 5636 5629 5622 5614 5605 5596 5587 5579 5572 5564 5555 5548 5540 5533 5527 5521 5516 5513 5510 5507 5505
5731 5729 5726 5722 5718 5714 5710 5707 5702 5697 5693 5688 5683 5679 5674 5669 5664 5658 5652 5646 5639 5631 5624 5616 5608 5599 5591 5583 5575 5567 5559 5551 5544 5537 5530 5522 5515 5509 5505 5503 5502 5501 5500
5719 5716 5713 5709 5706 5703 5699 5695 5691 5686 5682 5677 5672 5667 5663 5658 5653 5647 5640 5634 5626 5619 5611 5604 5595 5587 5580 5572 5564 5556 5548 5541 5534 5527 5520 5513 5506 5500 5497 5496 5496 5496 5496
5706 5704 5701 5698 5696 5693 5689 5685 5681 5676 5671 5665 5660 5656 5653 5648 5642 5635 5628 5621 5614 5607 5600 5592 5585 5577 5570 5562 5555 5547 5539 5532 5526 5519 5512 5506 5500 5496 5492 5491 5491 5492 5493
5695 5693 5691 5689 5686 5684 5680 5676 5671 5666 5660 5654 5651 5647 5643 5637 5631 5624 5617 5610 5603 5597 5589 5583 5576 5568 5561 5553 5546 5539 5532 5526 5520 5514 5507 5501 5496 5492 5490 5488 5488 5489 5491
5684 5683 5682 5681 5679 5676 5672 5667 5661 5656 5651 5647 5643 5639 5634 5628 5621 5614 5606 5600 5593 5587 5580 5573 5567 5560 5552 5545 5538 5532 5526 5520 5515 5509 5503 5497 5493 5490 5488 5487 5488 5490 5492
5675 5675 5674 5673 5670 5666 5661 5656 5651 5647 5644 5640 5636 5631 5625 5618 5611 5604 5597 5590 5583 5576 5569 5563 5557 5551 5544 5538 5532 5526 5521 5516 5511 5505 5500 5495 5491 5489 5489 5489 5491 5493 5495
5667 5667 5666 5664 5661 5658 5654 5650 5645 5642 5638 5634 5629 5623 5616 5609 5602 5595 5588 5581 5574 5567 5561 5554 5548 5542 5537 5531 5526 5522 5518 5513 5508 5503 5498 5495 5493 5492 5492 5494 5495 5497 5499
5661 5661 5659 5657 5654 5651 5648 5644 5640 5637 5633 5628 5621 5614 5608 5601 5594 5587 5580 5572 5565 5558 5552 5546 5540 5535 5530 5526 5522 5520 5516 5512 5508 5504 5500 5498 5497 5497 5497 5499 5500 5501 5503
5655 5655 5653 5651 5649 5646 5642 5639 5636 5632 5626 5620 5613 5607 5600 5593 5586 5578 5571 5564 5557 5551 5545 5540 5535 5530 5526 5523 5520 5518 5515 5512 5508 5505 5503 5502 5502 5502 5502 5503 5504 5505 5506
5651 5650 5648 5646 5644 5642 5639 5635 5631 5625 5619 5613 5607 5600 5592 5585 5577 5571 5564 5556 5551 5545 5540 5536 5531 5527 5524 5521 5519 5517 5514 5512 5509 5507 5506 5506 5506 5506 5507 5507 5508 5509 5510